IGO6653 VOBL-VOGO

Flight info

Callsign IGO6653
Flight time 0h 47m
Altitude 34000
Route GUNIM8A GUNIM R461 GONAB GONAB2A
Aircraft A320/M-SDE3FGHIRWY/LB1

Departure

Time 2026-05-08 06:17
Airport Kempegowda International Airport Bengaluru (VOBL)

Arrival

Time 2026-05-08 07:05
Airport Goa Dabolim International Airport (VOGO)
Time Latitude Longitude Altitude Speed Heading
2026-05-08 05:57 13.20175 77.70760 2968 ft 0 kts 180°
2026-05-08 06:03 13.20185 77.70760 2969 ft 4 kts 180°
2026-05-08 06:03 13.20212 77.70760 2968 ft 4 kts 180°
2026-05-08 06:04 13.20234 77.70761 2969 ft 4 kts 180°
2026-05-08 06:04 13.20256 77.70761 2968 ft 4 kts 210°
2026-05-08 06:04 13.20263 77.70777 2969 ft 3 kts 270°
2026-05-08 06:04 13.20263 77.70803 2968 ft 2 kts 271°
2026-05-08 06:05 13.20263 77.70805 2968 ft 0 kts 271°
2026-05-08 06:07 13.20263 77.70801 2968 ft 1 kts 271°
2026-05-08 06:07 13.20263 77.70784 2968 ft 3 kts 271°
2026-05-08 06:07 13.20263 77.70755 2969 ft 5 kts 271°
2026-05-08 06:07 13.20264 77.70713 2968 ft 7 kts 271°
2026-05-08 06:08 13.20264 77.70660 2968 ft 8 kts 270°
2026-05-08 06:08 13.20265 77.70596 2968 ft 10 kts 270°
2026-05-08 06:08 13.20265 77.70523 2969 ft 11 kts 270°
2026-05-08 06:08 13.20266 77.70441 2969 ft 12 kts 270°
2026-05-08 06:09 13.20318 77.70391 2969 ft 13 kts
2026-05-08 06:09 13.20411 77.70393 2969 ft 14 kts
2026-05-08 06:09 13.20507 77.70387 2970 ft 15 kts 338°
2026-05-08 06:09 13.20533 77.70293 2971 ft 14 kts 269°
2026-05-08 06:10 13.20533 77.70191 2973 ft 15 kts 270°
2026-05-08 06:10 13.20533 77.70082 2972 ft 16 kts 270°
2026-05-08 06:10 13.20533 77.69957 2971 ft 19 kts 270°
2026-05-08 06:10 13.20535 77.69820 2971 ft 20 kts 270°
2026-05-08 06:11 13.20536 77.69676 2971 ft 21 kts 271°
2026-05-08 06:11 13.20537 77.69517 2967 ft 24 kts 270°
2026-05-08 06:11 13.20539 77.69338 2967 ft 26 kts 271°
2026-05-08 06:11 13.20539 77.69230 2968 ft 7 kts 272°
2026-05-08 06:12 13.20575 77.69210 2968 ft 7 kts
2026-05-08 06:12 13.20584 77.69210 2968 ft 0 kts
2026-05-08 06:14 13.20585 77.69210 2968 ft 1 kts
2026-05-08 06:14 13.20592 77.69210 2968 ft 1 kts
2026-05-08 06:15 13.20603 77.69210 2969 ft 2 kts
2026-05-08 06:15 13.20621 77.69211 2969 ft 3 kts
2026-05-08 06:15 13.20646 77.69211 2969 ft 4 kts
2026-05-08 06:15 13.20680 77.69212 2969 ft 6 kts
2026-05-08 06:16 13.20703 77.69234 2969 ft 6 kts 76°
2026-05-08 06:16 13.20707 77.69375 2969 ft 47 kts 90°
2026-05-08 06:16 13.20706 77.69940 2969 ft 108 kts 90°
2026-05-08 06:16 13.20697 77.70874 2968 ft 152 kts 90°
2026-05-08 06:17 13.21042 77.73251 3858 ft 176 kts 58°
2026-05-08 06:17 13.21738 77.74300 4411 ft 182 kts 60°
2026-05-08 06:17 13.22429 77.75459 4620 ft 204 kts 61°
2026-05-08 06:18 13.23188 77.76793 4828 ft 229 kts 62°
2026-05-08 06:18 13.24022 77.78288 5173 ft 254 kts 61°
2026-05-08 06:18 13.24912 77.79901 5851 ft 263 kts 61°
2026-05-08 06:18 13.25818 77.81546 6626 ft 267 kts 60°
2026-05-08 06:19 13.27042 77.82979 7379 ft 273 kts 33°
2026-05-08 06:19 13.28872 77.83549 8146 ft 282 kts
2026-05-08 06:19 13.30834 77.83609 8986 ft 284 kts 360°
2026-05-08 06:19 13.32785 77.83185 9781 ft 292 kts 343°
2026-05-08 06:20 13.34604 77.82232 10272 ft 307 kts 333°
2026-05-08 06:20 13.36526 77.81092 10457 ft 330 kts 333°
2026-05-08 06:20 13.38548 77.79899 10893 ft 339 kts 333°
2026-05-08 06:20 13.40611 77.78683 11491 ft 344 kts 333°
2026-05-08 06:21 13.42704 77.77454 12114 ft 348 kts 333°
2026-05-08 06:21 13.44817 77.76219 12738 ft 351 kts 333°
2026-05-08 06:21 13.46953 77.74975 13343 ft 355 kts 332°
2026-05-08 06:21 13.49083 77.73733 13904 ft 359 kts 332°
2026-05-08 06:22 13.51085 77.72175 14417 ft 366 kts 317°
2026-05-08 06:22 13.52658 77.70105 14947 ft 371 kts 302°
2026-05-08 06:22 13.53672 77.67657 15512 ft 375 kts 286°
2026-05-08 06:22 13.54090 77.65006 16109 ft 377 kts 277°
2026-05-08 06:23 13.54384 77.62334 16723 ft 377 kts 277°
2026-05-08 06:23 13.54690 77.59653 17295 ft 378 kts 277°
2026-05-08 06:23 13.55002 77.56966 17844 ft 380 kts 276°
2026-05-08 06:23 13.55312 77.54303 18358 ft 382 kts 276°
2026-05-08 06:24 13.55629 77.51589 18798 ft 384 kts 276°
2026-05-08 06:24 13.55947 77.48860 19243 ft 386 kts 276°
2026-05-08 06:24 13.56261 77.46108 19645 ft 389 kts 276°
2026-05-08 06:24 13.56570 77.43334 20057 ft 393 kts 276°
2026-05-08 06:25 13.56875 77.40532 20477 ft 395 kts 276°
2026-05-08 06:25 13.57181 77.37719 20906 ft 397 kts 276°
2026-05-08 06:25 13.57487 77.34889 21325 ft 400 kts 276°
2026-05-08 06:25 13.57797 77.32041 21726 ft 402 kts 276°
2026-05-08 06:26 13.58105 77.29211 22113 ft 405 kts 276°
2026-05-08 06:26 13.58417 77.26325 22492 ft 408 kts 276°
2026-05-08 06:26 13.58731 77.23418 22877 ft 410 kts 276°
2026-05-08 06:26 13.59050 77.20491 23222 ft 414 kts 277°
2026-05-08 06:27 13.59373 77.17543 23568 ft 417 kts 277°
2026-05-08 06:27 13.59698 77.14571 23849 ft 419 kts 277°
2026-05-08 06:27 13.60023 77.11587 24156 ft 421 kts 277°
2026-05-08 06:27 13.60350 77.08589 24477 ft 423 kts 277°
2026-05-08 06:28 13.60678 77.05582 24794 ft 425 kts 277°
2026-05-08 06:28 13.61004 77.02597 25118 ft 426 kts 276°
2026-05-08 06:28 13.61336 76.99567 25437 ft 428 kts 276°
2026-05-08 06:28 13.61664 76.96522 25752 ft 430 kts 276°
2026-05-08 06:29 13.61992 76.93463 26047 ft 432 kts 276°
2026-05-08 06:29 13.62323 76.90391 26372 ft 433 kts 276°
2026-05-08 06:29 13.62657 76.87308 26684 ft 435 kts 276°
2026-05-08 06:29 13.62989 76.84209 26972 ft 437 kts 276°
2026-05-08 06:30 13.63322 76.81096 27257 ft 439 kts 276°
2026-05-08 06:30 13.63658 76.77965 27525 ft 442 kts 276°
2026-05-08 06:30 13.63992 76.74864 27822 ft 443 kts 276°
2026-05-08 06:30 13.64329 76.71711 28127 ft 444 kts 276°
2026-05-08 06:31 13.64668 76.68547 28423 ft 446 kts 276°
2026-05-08 06:31 13.65007 76.65369 28722 ft 448 kts 276°
2026-05-08 06:31 13.65576 76.62213 29008 ft 451 kts 285°
2026-05-08 06:31 13.66631 76.59168 29311 ft 453 kts 292°
2026-05-08 06:32 13.67839 76.56167 29607 ft 456 kts 292°
2026-05-08 06:32 13.69050 76.53151 29911 ft 457 kts 291°
2026-05-08 06:32 13.70264 76.50123 30173 ft 459 kts 291°
2026-05-08 06:32 13.71468 76.47117 30369 ft 462 kts 291°
2026-05-08 06:33 13.72692 76.44050 30600 ft 465 kts 291°
2026-05-08 06:33 13.73922 76.40963 30837 ft 467 kts 291°
2026-05-08 06:33 13.75152 76.37871 31121 ft 467 kts 290°
2026-05-08 06:33 13.76379 76.34782 31479 ft 466 kts 291°
2026-05-08 06:34 13.77603 76.31702 31856 ft 465 kts 291°
2026-05-08 06:34 13.78827 76.28629 32245 ft 464 kts 290°
2026-05-08 06:34 13.80034 76.25599 32627 ft 463 kts 291°
2026-05-08 06:34 13.81250 76.22538 33007 ft 462 kts 291°
2026-05-08 06:35 13.82462 76.19482 33396 ft 461 kts 291°
2026-05-08 06:35 13.83675 76.16433 33778 ft 461 kts 290°
2026-05-08 06:35 13.84889 76.13385 33910 ft 459 kts 290°
2026-05-08 06:35 13.86099 76.10351 33929 ft 457 kts 290°
2026-05-08 06:36 13.88501 76.04316 33924 ft 456 kts 290°
2026-05-08 06:36 13.90875 75.98321 33924 ft 455 kts 290°
2026-05-08 06:37 13.93262 75.92292 33922 ft 455 kts 290°
2026-05-08 06:37 13.95655 75.86261 33926 ft 455 kts 290°
2026-05-08 06:38 13.98047 75.80231 33932 ft 455 kts 291°
2026-05-08 06:38 14.00427 75.74193 33933 ft 455 kts 291°
2026-05-08 06:39 14.02789 75.68185 33935 ft 456 kts 289°
2026-05-08 06:39 14.05174 75.62141 33940 ft 456 kts 291°
2026-05-08 06:40 14.07566 75.56095 33911 ft 456 kts 291°
2026-05-08 06:40 14.10873 75.50515 33915 ft 459 kts 307°
2026-05-08 06:41 14.14783 75.45375 33917 ft 459 kts 307°
2026-05-08 06:41 14.18708 75.40192 33922 ft 458 kts 307°
2026-05-08 06:42 14.22625 75.35012 33909 ft 459 kts 306°
2026-05-08 06:42 14.26550 75.29820 33901 ft 459 kts 306°
2026-05-08 06:43 14.30452 75.24659 33899 ft 460 kts 307°
2026-05-08 06:43 14.32419 75.22060 33438 ft 461 kts 307°
2026-05-08 06:43 14.34406 75.19431 32613 ft 465 kts 307°
2026-05-08 06:44 14.36379 75.16814 32153 ft 460 kts 306°
2026-05-08 06:44 14.38338 75.14211 31618 ft 458 kts 306°
2026-05-08 06:44 14.40290 75.11625 31085 ft 456 kts 306°
2026-05-08 06:44 14.42237 75.09049 30560 ft 453 kts 307°
2026-05-08 06:45 14.44172 75.06492 30039 ft 451 kts 307°
2026-05-08 06:45 14.46097 75.03946 29447 ft 449 kts 307°
2026-05-08 06:45 14.48002 75.01422 28963 ft 443 kts 307°
2026-05-08 06:45 14.49859 74.98957 28481 ft 439 kts 307°
2026-05-08 06:46 14.51722 74.96480 27989 ft 434 kts 307°
2026-05-08 06:46 14.53561 74.94034 27532 ft 429 kts 308°
2026-05-08 06:46 14.55381 74.91615 27062 ft 424 kts 308°
2026-05-08 06:46 14.57179 74.89222 26631 ft 420 kts 308°
2026-05-08 06:47 14.58955 74.86858 26198 ft 416 kts 308°
2026-05-08 06:47 14.60716 74.84511 25756 ft 412 kts 308°
2026-05-08 06:47 14.62466 74.82182 25315 ft 408 kts 308°
2026-05-08 06:47 14.64200 74.79874 24879 ft 406 kts 308°
2026-05-08 06:48 14.65925 74.77578 24418 ft 404 kts 308°
2026-05-08 06:48 14.67616 74.75323 23983 ft 402 kts 309°
2026-05-08 06:48 14.69320 74.73046 23519 ft 400 kts 309°
2026-05-08 06:48 14.71010 74.70762 23006 ft 399 kts 308°
2026-05-08 06:49 14.72677 74.68490 22521 ft 395 kts 308°
2026-05-08 06:49 14.74326 74.66232 22048 ft 392 kts 308°
2026-05-08 06:49 14.75963 74.63991 21579 ft 390 kts 308°
2026-05-08 06:49 14.77594 74.61763 21085 ft 387 kts 308°
2026-05-08 06:50 14.79211 74.59556 20608 ft 385 kts 308°
2026-05-08 06:50 14.80800 74.57389 20131 ft 382 kts 307°
2026-05-08 06:50 14.82401 74.55208 19663 ft 380 kts 307°
2026-05-08 06:50 14.83992 74.53037 19180 ft 378 kts 307°
2026-05-08 06:51 14.85577 74.50873 18713 ft 376 kts 307°
2026-05-08 06:51 14.87157 74.48720 18231 ft 375 kts 307°
2026-05-08 06:51 14.88734 74.46573 17709 ft 374 kts 307°
2026-05-08 06:51 14.90297 74.44442 17235 ft 371 kts 307°
2026-05-08 06:52 14.91849 74.42323 16768 ft 368 kts 307°
2026-05-08 06:52 14.93365 74.40248 16312 ft 365 kts 307°
2026-05-08 06:52 14.94889 74.38158 15852 ft 362 kts 308°
2026-05-08 06:52 14.96400 74.36086 15401 ft 360 kts 308°
2026-05-08 06:53 14.97906 74.34027 14950 ft 358 kts 309°
2026-05-08 06:53 14.99405 74.31977 14503 ft 355 kts 309°
2026-05-08 06:53 15.00890 74.29944 14071 ft 353 kts 309°
2026-05-08 06:53 15.02475 74.28021 13635 ft 350 kts 319°
2026-05-08 06:54 15.04433 74.26554 13167 ft 346 kts 334°
2026-05-08 06:54 15.06641 74.25649 12751 ft 339 kts 348°
2026-05-08 06:54 15.08908 74.25221 12356 ft 333 kts 353°
2026-05-08 06:54 15.11185 74.24836 11953 ft 330 kts 353°
2026-05-08 06:55 15.13443 74.24451 11548 ft 327 kts 353°
2026-05-08 06:55 15.15679 74.24070 11147 ft 325 kts 354°
2026-05-08 06:55 15.17900 74.23695 10760 ft 323 kts 354°
2026-05-08 06:55 15.20113 74.23320 10367 ft 321 kts 354°
2026-05-08 06:56 15.22312 74.22947 9995 ft 319 kts 354°
2026-05-08 06:56 15.24465 74.22577 9862 ft 308 kts 354°
2026-05-08 06:56 15.26509 74.22224 9738 ft 296 kts 354°
2026-05-08 06:56 15.28522 74.21877 9391 ft 290 kts 354°
2026-05-08 06:57 15.30503 74.21541 8748 ft 288 kts 354°
2026-05-08 06:57 15.32477 74.21208 8110 ft 287 kts 354°
2026-05-08 06:57 15.34439 74.20878 7459 ft 286 kts 354°
2026-05-08 06:57 15.36387 74.20386 6764 ft 292 kts 340°
2026-05-08 06:58 15.38103 74.19302 6396 ft 285 kts 323°
2026-05-08 06:58 15.39580 74.18026 6234 ft 268 kts 323°
2026-05-08 06:58 15.40953 74.16855 6112 ft 251 kts 323°
2026-05-08 06:58 15.42259 74.15700 5870 ft 248 kts 314°
2026-05-08 06:59 15.43202 74.14209 5610 ft 249 kts 293°
2026-05-08 06:59 15.43580 74.12471 5332 ft 248 kts 271°
2026-05-08 06:59 15.43379 74.10704 5033 ft 247 kts 259°
2026-05-08 06:59 15.43039 74.08957 4719 ft 247 kts 259°
2026-05-08 07:00 15.42702 74.07217 4393 ft 246 kts 259°
2026-05-08 07:00 15.42368 74.05481 4057 ft 246 kts 258°
2026-05-08 07:00 15.42039 74.03769 3744 ft 246 kts 259°
2026-05-08 07:00 15.41709 74.02057 3419 ft 236 kts 259°
2026-05-08 07:01 15.41393 74.00414 3129 ft 230 kts 259°
2026-05-08 07:01 15.41086 73.98822 2813 ft 221 kts 259°
2026-05-08 07:01 15.40790 73.97285 2550 ft 214 kts 259°
2026-05-08 07:01 15.40503 73.95799 2272 ft 207 kts 259°
2026-05-08 07:02 15.40225 73.94358 2007 ft 201 kts 259°
2026-05-08 07:02 15.39956 73.92963 1768 ft 195 kts 259°
2026-05-08 07:02 15.39703 73.91653 1523 ft 178 kts 259°
2026-05-08 07:02 15.39477 73.90482 1286 ft 156 kts 259°
2026-05-08 07:03 15.39273 73.89425 1096 ft 145 kts 260°
2026-05-08 07:03 15.39079 73.88424 913 ft 138 kts 260°
2026-05-08 07:03 15.38891 73.87450 741 ft 138 kts 261°
2026-05-08 07:03 15.38706 73.86491 566 ft 135 kts 259°
2026-05-08 07:04 15.38521 73.85525 407 ft 136 kts 259°
2026-05-08 07:04 15.38338 73.84575 236 ft 133 kts 260°
2026-05-08 07:04 15.38158 73.83674 172 ft 120 kts 262°
2026-05-08 07:04 15.38024 73.82975 158 ft 75 kts 258°
2026-05-08 07:05 15.37954 73.82617 152 ft 30 kts 258°
2026-05-08 07:05 15.37920 73.82443 146 ft 24 kts 258°
2026-05-08 07:05 15.37938 73.82365 144 ft 12 kts 340°
2026-05-08 07:05 15.38022 73.82349 144 ft 9 kts 348°
2026-05-08 07:06 15.38082 73.82366 144 ft 10 kts 62°
2026-05-08 07:06 15.38094 73.82438 146 ft 10 kts 81°
2026-05-08 07:06 15.38106 73.82507 149 ft 10 kts 79°
2026-05-08 07:06 15.38119 73.82576 151 ft 10 kts 79°
2026-05-08 07:07 15.38131 73.82644 153 ft 10 kts 78°
2026-05-08 07:07 15.38145 73.82711 155 ft 9 kts 77°
2026-05-08 07:07 15.38158 73.82777 157 ft 9 kts 79°
2026-05-08 07:07 15.38170 73.82847 157 ft 11 kts 80°
2026-05-08 07:08 15.38186 73.82934 157 ft 14 kts 80°
2026-05-08 07:08 15.38205 73.83039 156 ft 16 kts 79°
2026-05-08 07:08 15.38228 73.83163 155 ft 19 kts 79°
2026-05-08 07:08 15.38250 73.83283 158 ft 13 kts 79°
2026-05-08 07:09 15.38267 73.83369 161 ft 11 kts 79°
2026-05-08 07:09 15.38279 73.83440 164 ft 9 kts 79°
2026-05-08 07:09 15.38289 73.83493 166 ft 6 kts 79°
2026-05-08 07:09 15.38298 73.83535 168 ft 7 kts 76°
2026-05-08 07:10 15.38309 73.83590 170 ft 9 kts 79°
2026-05-08 07:10 15.38321 73.83654 172 ft 8 kts 79°
2026-05-08 07:10 15.38341 73.83691 174 ft 5 kts 14°
2026-05-08 07:10 15.38376 73.83684 174 ft 6 kts 347°
2026-05-08 07:11 15.38399 73.83679 174 ft 2 kts 348°
2026-05-08 07:11 15.38403 73.83679 174 ft 0 kts 349°